Free Severe Weather Alerts by Email and Text Message   

 
Follow iAlert.com on twitter @ialertcom
Search For Active Alerts in Your Area  
  Hi Guest:  [ Sign-up / Services ] [ Login ]

Current weather by "City, St" or "zip code"  

 

Advertise Here

Hazardous Weather Conditions

No active alerts for HOUSTON, TEXAS

Current Conditions: HOUSTON, TEXAS

Overcast


73.0 F

Last Updated on Apr 28 2017, 12:53 am CDT
Humidity: 79%
Wind Speed: S 5.8 mph
Barometer 29.67 in
Dewpoint: 66.0 F
Visibility: 10.00 mi
Precip: --
Heat Index: NA
Wind Chill: NA
Current conditions at:

Houston, Hooks Memorial Airport, TX (KDWH)

Lat: 30.06 Lon: -95.556

Local Radar Image active severe weather and emergency alerts image image weather storm and storm spotter reports image weather observation monitoring service image
Local
Radar
Active
Alerts
Storm Reports Weather
Monitoring

Weather Alert Notification Services


ialert severe weather and emergency alerts by text message and email ialert daily weather forecast by email and text message service ialert real-time weather-observation monitoring and alert notification service ialert storm report monitoring alert notification

Observation History for HOUSTON, TEXAS


Time Wind
(mph)
Vis
(mi)
Weather Precip (in) Temperature (F) Relative
Humidity
Wind
Chill
(°F)
Heat
Index
(°F)
Pressure
Air Dwpt altimeter
(in)
sea level
(mb)
12:53 am CDT S 5.8 10.00 Overcast -- 73.0 66.0 79% NA NA 29.67 1004.4
11:53 pm CDT 4.6 10.00 Overcast -- 72.0 64.9 79% NA NA 29.68 1004.7
10:53 pm CDT SE 5.8 10.00 Overcast -- 71.0 63.0 76% NA NA 29.68 1004.9
9:53 pm CDT SE 10.4 10.00 Fair -- 71.0 57.9 63% NA NA 29.67 1004.7
8:53 pm CDT SE 9.2 10.00 Fair -- 72.0 54.0 53% NA NA 29.67 1004.4
7:53 pm CDT SE 9.2 10.00 Fair -- 75.0 50.0 42% NA NA 29.66 1004.2
6:53 pm CDT E 6.9 10.00 Fair -- 78.0 55.0 45% NA NA 29.68 1004.9
5:53 pm CDT SE 8.1 10.00 Fair -- 79.0 53.1 41% NA NA 29.68 1005.0
4:53 pm CDT 4.6 10.00 Fair -- 80.0 51.1 37% NA 80 29.70 1005.5
3:53 pm CDT 4.6 10.00 Fair -- 81.0 48.0 32% NA 80 29.72 1006.3
2:53 pm CDT SE 8.1 10.00 Fair -- 79.0 48.9 35% NA NA 29.75 1007.0
1:53 pm CDT N 0.0 10.00 Fair -- 77.0 48.9 37% NA NA 29.78 1008.0
12:53 pm CDT SE 6.9 10.00 Fair -- 74.0 48.9 41% NA NA 29.81 1009.2
11:53 am CDT E 8.1 10.00 Fair -- 70.0 46.9 44% NA NA 29.83 1010.0
10:53 am CDT E 6.9 10.00 Fair -- 68.0 48.0 49% NA NA 29.84 1010.4
9:53 am CDT E 9.2 10.00 Fair -- 64.0 46.0 52% NA NA 29.84 1010.4
8:53 am CDT E 11.5 10.00 Fair -- 60.0 48.0 65% 58 NA 29.85 1010.7
7:53 am CDT NE 4.6 10.00 Fair -- 58.0 50.0 75% 58 NA 29.83 1010.1
6:53 am CDT N 0.0 10.00 Fair -- 51.0 48.9 92% NA NA 29.83 1009.8
5:53 am CDT N 0.0 10.00 Fair -- 51.0 48.9 92% NA NA 29.81 1009.3
4:53 am CDT N 0.0 10.00 Fair -- 52.0 50.0 93% NA NA 29.81 1009.2
3:53 am CDT E 3.5 10.00 Fair -- 57.0 50.0 78% NA NA 29.79 1008.5
2:53 am CDT NE 4.6 10.00 Fair -- 59.0 48.9 69% 59 NA 29.79 1008.4
1:53 am CDT 6.9 10.00 Fair -- 61.0 48.0 63% 60 NA 29.79 1008.7

Regional Weather Observation:


John Dunn Helistop, TX (KMCJ)

Overcast
73.0 F

Houston, Houston Hobby Airport, TX (KHOU)

Overcast
74.0 F

Houston Southwest Airport, TX (KAXH)

Overcast
73.0 F

Conroe, Montgomery County Airport, TX (KCXO)

Overcast
69.0 F

Houston, Pearland Regional Airport, TX (KLVJ)

Overcast
77.0 F

Cleveland, TX (K6R3)

Overcast
70.0 F

Advertise Here


Advertise Here